Dewpoint
44 44 43 41 40 39 38 39 40 42 41 40 40 41 42 42 42 42 41 40 41 41
44 43 43 41 40 39 38 37 38 39 39 39 39 38 39 40 40 40 40 40 40 40
44 44 43 41 40 39 38 37 35 35 37 38 37 36 36 37 38 38 38 38 38 38
40 41 42 41 40 39 38 38 36 36 36 36 35 34 33 33 34 35 35 35 36 36
39 39 38 38 38 38 36 36 35 35 34 34 33 33 32 31 31 31 31 31 33 34
37 37 37 38 38 38 38 37 36 36 35 35 35 34 33 32 31 31 30 30 30 30
33 33 33 34 35 36 37 36 37 37 37 37 36 36 35 33 32 32 32 33 33 32
30 29 29 29 30 31 32 32 33 32 32 32 34 37 37 37 36 35 35 35 35 35
27 27 27 27 27 27 28 29 30 30 30 30 30 35 36 37 35 35 36 36 36 36
25 25 25 24 24 24 25 26 26 27 28 29 30 34 34 37 35 34 33 33 34 35
23 23 24 23 22 22 22 23 24 26 27 27 27 33 34 36 32 33 32 32 32 33
23 23 23 22 21 21 20 21 21 22 23 23 23 29 31 33 29 30 30 30 31 30
24 24 22 22 21 20 20 19 20 20 22 24 20 25 27 29 26 28 29 29 30 32
22 20 19 18 18 18 18 17 17 16 16 16 17 18 26 27 23 23 22 25 26 27
Lifted_Index
11 11 11 11 12 12 12 12 12 12 12 12 12 12 12 12 13 13 13 13 14 14
10 11 11 11 12 12 12 12 12 12 12 12 12 12 12 12 12 12 13 13 13 13
10 10 10 11 11 11 11 12 12 12 12 12 12 12 12 12 12 12 12 12 12 12
10 10 10 10 10 11 11 11 11 12 12 12 12 12 12 12 12 12 12 12 12 11
10 10 10 10 10 11 11 11 12 12 12 12 12 12 12 12 12 12 12 11 11 11
11 11 11 11 11 11 12 12 12 12 12 12 12 12 12 12 11 11 11 11 11 11
12 12 12 12 13 13 13 13 14 13 13 13 13 13 12 12 12 12 12 12 12 11
14 14 15 15 16 16 16 17 17 16 16 16 16 15 15 15 15 15 14 14 13 13
17 17 18 18 18 18 18 18 19 18 18 18 18 17 16 16 16 17 17 16 15 15
19 19 19 19 19 19 19 19 19 19 19 19 18 17 16 16 16 17 17 17 16 16
18 18 18 18 18 18 19 19 19 19 19 19 18 17 16 16 16 16 16 16 16 16
18 18 18 18 18 18 18 18 18 18 18 18 18 17 16 16 16 16 16 16 16 15
18 18 17 18 18 18 18 18 18 18 18 18 18 17 16 16 16 16 16 16 15 14
17 17 17 17 18 18 18 18 18 18 17 17 17 17 16 16 16 16 16 15 14 14